Weather in Yurkovka

Ukraine / Cherkassi District     48°33′44″N   30°03′05″E
temp.,
°C
wind,
m/s
gust,
m/s
humid.,
%
clouds,
%
prec.,
mm/h
press.,
hPa
HPBL,
m
30 june, thu
thu3000:00+19ene49825 0.0 1016193
03:00+18ene229022 0.1 101520
06:00+18ene24897 0.0 1015105
09:00+24ne34645 0.1 1016486
12:00+29nne44465 0.0 10151361
15:00+31nne453760 0.0 10132742
18:00+27ene675193 0.0 1013534
21:00+24ene5961100 0.0 1015417
1 july, fri
fri100:00+21e497150 0.1 1016291
03:00+18ene3685100 0.1 1017110
06:00+18ene478346 0.0 1017170
09:00+24ene45570 0.0 1018840
12:00+28ene44390 0.0 10171965
15:00+30ene54290 0.0 10162221
18:00+29ene55300 0.0 10161973
21:00+22ese33490 0.0 101836
2 july, sat
sat200:00+19e46585 0.0 101985
03:00+17e376948 0.0 1020122
06:00+17e3770100 0.0 1021152
09:00+23ese34473 0.0 1022652
12:00+27e43340 0.0 10221791
15:00+29e322943 0.0 10212232
18:00+29e433066 0.0 10202130
21:00+22ese46470 0.0 102074
3 july, sun
sun300:00+18ese47481 0.0 1021116
03:00+16s344449 0.0 102269
06:00+17se3542100 0.0 102089
09:00+24s343579 0.0 1020412
12:00+29sse33345 0.0 10191633
15:00+25nw4459100 0.5 1018371
18:00+24ene126653 1.6 1018295
21:00+19s359256 2.2 1018142
4 july, mon
mon400:00+17wsw229787 0.1 101823
03:00+17nnw239618 0.9 101844
06:00+17nw349420 0.1 101884
09:00+22nnw34724 0.1 1017525
12:00+28nnw444478 0.2 10172000
15:00+29nnw543657 0.2 10162533
18:00+29nnw43343 0.0 10152019
21:00+24nne34510 0.0 101648